When you browse on this site, cookies collect data to enhance your experience and personalize the content and advertising you see.
Visit our Privacy Policy to learn more. By continuing to use the site, you agree to this use of cookies and data.
  • In Belgium
  • List of Countries
  • For 7 days
  • Water Temperature
  • Satellite Maps
  • Weather Map
  • Weather Widgets
  • user-avatar
    Login

    Hourly Weather Sarajevo

    Today, 17 June, Monday

    Time Temperature Precipitation Wind Pressure Humidity
    00:00 +15°C° 0 mm 2 mps 688 mmHg 90%
    01:00 +15°C° 0 mm 2 mps 688 mmHg 87%
    02:00 +14°C° 0 mm 2 mps 688 mmHg 89%
    03:00 +14°C° 0 mm 2 mps 688 mmHg 91%
    04:00 +14°C° 0 mm 2 mps 687 mmHg 93%
    05:00 +15°C° 0 mm 2 mps 688 mmHg 92%
    06:00 +17°C° 0 mm 2 mps 689 mmHg 91%
    07:00 +18°C° 0 mm 2 mps 689 mmHg 90%
    08:00 +19°C° 0.1 mm 2 mps 689 mmHg 84%
    09:00 +21°C° 0.1 mm 2 mps 689 mmHg 78%
    10:00 +23°C° 0.1 mm 2 mps 690 mmHg 72%
    11:00 +24°C° 0.6 mm 2 mps 690 mmHg 71%
    12:00 +24°C° 0.6 mm 2 mps 690 mmHg 70%
    13:00 +25°C° 0.6 mm 2 mps 690 mmHg 68%
    14:00 +24°C° 0.7 mm 2 mps 689 mmHg 72%
    15:00 +24°C° 0.7 mm 2 mps 689 mmHg 76%
    16:00 +23°C° 0.7 mm 2 mps 689 mmHg 80%
    17:00 +21°C° 0.5 mm 2 mps 688 mmHg 84%
    18:00 +21°C° 0.5 mm 1 mps 688 mmHg 88%
    19:00 +20°C° 0.5 mm 1 mps 688 mmHg 92%
    20:00 +19°C° 0.9 mm 1 mps 688 mmHg 92%
    21:00 +19°C° 0.9 mm 1 mps 688 mmHg 93%
    22:00 +18°C° 0.9 mm 1 mps 688 mmHg 93%
    23:00 +18°C° 0.1 mm 1 mps 688 mmHg 92%

    Tomorrow, 18 June, Tuesday

    Time Temperature Precipitation Wind Pressure Humidity
    00:00 +16°C° 0.1 mm 1 mps 688 mmHg 91%
    01:00 +16°C° 0.1 mm 1 mps 688 mmHg 91%
    02:00 +16°C° 0.1 mm 1 mps 688 mmHg 91%
    03:00 +16°C° 0.1 mm 1 mps 688 mmHg 91%
    04:00 +15°C° 0.1 mm 1 mps 688 mmHg 91%
    05:00 +18°C° 0.1 mm 1 mps 688 mmHg 90%
    06:00 +19°C° 0.1 mm 1 mps 689 mmHg 89%
    07:00 +20°C° 0.1 mm 1 mps 689 mmHg 87%
    08:00 +21°C° 1 mm 1 mps 689 mmHg 84%
    09:00 +22°C° 1 mm 1 mps 689 mmHg 81%
    10:00 +23°C° 1 mm 1 mps 690 mmHg 78%
    11:00 +23°C° 1.3 mm 1 mps 689 mmHg 79%
    12:00 +23°C° 1.3 mm 1 mps 689 mmHg 79%
    13:00 +23°C° 1.3 mm 1 mps 689 mmHg 80%
    14:00 +23°C° 0.8 mm 1 mps 689 mmHg 80%
    15:00 +23°C° 0.8 mm 1 mps 689 mmHg 80%
    16:00 +23°C° 0.8 mm 1 mps 688 mmHg 80%
    17:00 +22°C° 0.3 mm 1 mps 688 mmHg 83%
    18:00 +21°C° 0.3 mm 1 mps 688 mmHg 86%
    19:00 +17°C° 0.3 mm 0 mps 688 mmHg 90%
    20:00 +16°C° 0 mm 0 mps 688 mmHg 90%
    21:00 +16°C° 0 mm 1 mps 688 mmHg 91%
    22:00 +16°C° 0 mm 1 mps 688 mmHg 91%
    23:00 +15°C° 0 mm 1 mps 687 mmHg 91%

    Day after tomorrow, 19 June, Wednesday

    Time Temperature Precipitation Wind Pressure Humidity
    00:00 +15°C° 0 mm 1 mps 687 mmHg 90%
    01:00 +15°C° 0 mm 1 mps 687 mmHg 90%
    02:00 +15°C° 0 mm 1 mps 687 mmHg 89%
    03:00 +14°C° 0 mm 1 mps 687 mmHg 89%
    04:00 +14°C° 0 mm 1 mps 687 mmHg 88%
    05:00 +15°C° 0 mm 0 mps 687 mmHg 85%
    06:00 +17°C° 0 mm 0 mps 688 mmHg 83%
    07:00 +19°C° 0 mm 0 mps 688 mmHg 80%
    08:00 +21°C° 0 mm 0 mps 688 mmHg 72%
    09:00 +23°C° 0 mm 0 mps 689 mmHg 64%
    10:00 +26°C° 0 mm 1 mps 689 mmHg 56%
    11:00 +27°C° 0.3 mm 1 mps 689 mmHg 57%
    12:00 +27°C° 0.3 mm 1 mps 689 mmHg 57%
    13:00 +27°C° 0.3 mm 2 mps 688 mmHg 58%
    14:00 +26°C° 1.2 mm 1 mps 688 mmHg 64%
    15:00 +25°C° 1.2 mm 1 mps 688 mmHg 71%
    16:00 +24°C° 1.2 mm 1 mps 687 mmHg 77%
    17:00 +23°C° 1 mm 1 mps 687 mmHg 81%
    18:00 +22°C° 1 mm 1 mps 687 mmHg 85%
    19:00 +18°C° 1 mm 0 mps 687 mmHg 89%
    20:00 +17°C° 0.2 mm 0 mps 687 mmHg 89%
    21:00 +17°C° 0.2 mm 0 mps 687 mmHg 90%
    22:00 +16°C° 0.2 mm 0 mps 687 mmHg 90%
    23:00 +15°C° 0 mm 0 mps 687 mmHg 90%

    20 June, Thursday

    Time Temperature Precipitation Wind Pressure Humidity
    00:00 +15°C° 0 mm 0 mps 687 mmHg 90%
    01:00 +15°C° 0 mm 0 mps 686 mmHg 90%
    02:00 +15°C° 0 mm 0 mps 686 mmHg 90%
    03:00 +15°C° 0 mm 0 mps 686 mmHg 90%
    04:00 +14°C° 0 mm 0 mps 686 mmHg 90%
    05:00 +16°C° 0 mm 0 mps 687 mmHg 87%
    06:00 +18°C° 0 mm 0 mps 687 mmHg 85%
    07:00 +20°C° 0 mm 0 mps 688 mmHg 83%
    08:00 +23°C° 0.7 mm 1 mps 688 mmHg 79%
    09:00 +24°C° 0.7 mm 1 mps 688 mmHg 76%
    10:00 +25°C° 0.7 mm 1 mps 688 mmHg 72%
    11:00 +25°C° 1.2 mm 1 mps 688 mmHg 70%
    12:00 +26°C° 1.2 mm 1 mps 688 mmHg 68%
    13:00 +26°C° 1.2 mm 1 mps 688 mmHg 66%
    14:00 +26°C° 0.8 mm 1 mps 688 mmHg 68%
    15:00 +26°C° 0.8 mm 1 mps 688 mmHg 70%
    16:00 +25°C° 0.8 mm 1 mps 688 mmHg 73%
    17:00 +24°C° 0.5 mm 1 mps 688 mmHg 78%
    18:00 +22°C° 0.5 mm 1 mps 687 mmHg 83%
    19:00 +19°C° 0.5 mm 0 mps 687 mmHg 88%
    20:00 +20°C° 0 mm 1 mps 687 mmHg 88%
    21:00 +19°C° 0 mm 1 mps 687 mmHg 88%
    22:00 +18°C° 0 mm 1 mps 687 mmHg 88%
    23:00 +18°C° 0 mm 1 mps 687 mmHg 87%

    21 June, Friday

    Time Temperature Precipitation Wind Pressure Humidity
    00:00 +16°C° 0 mm 1 mps 687 mmHg 87%
    01:00 +16°C° 0 mm 1 mps 687 mmHg 86%
    02:00 +16°C° 0 mm 1 mps 687 mmHg 86%
    03:00 +16°C° 0 mm 1 mps 687 mmHg 85%
    04:00 +15°C° 0 mm 1 mps 687 mmHg 85%
    05:00 +18°C° 0 mm 1 mps 688 mmHg 83%
    06:00 +18°C° 0 mm 0 mps 688 mmHg 81%
    07:00 +20°C° 0 mm 0 mps 689 mmHg 79%
    08:00 +22°C° 0 mm 0 mps 689 mmHg 71%
    09:00 +24°C° 0 mm 0 mps 690 mmHg 63%
    10:00 +25°C° 0 mm 0 mps 690 mmHg 55%
    11:00 +27°C° 0.4 mm 1 mps 690 mmHg 57%
    12:00 +28°C° 0.4 mm 1 mps 690 mmHg 58%
    13:00 +28°C° 0.4 mm 2 mps 689 mmHg 60%
    14:00 +27°C° 1 mm 1 mps 689 mmHg 65%
    15:00 +26°C° 1 mm 1 mps 689 mmHg 69%
    16:00 +25°C° 1 mm 1 mps 688 mmHg 74%
    17:00 +24°C° 0.4 mm 1 mps 688 mmHg 78%
    18:00 +21°C° 0.4 mm 0 mps 688 mmHg 82%
    19:00 +19°C° 0.4 mm 0 mps 688 mmHg 86%
    20:00 +18°C° 0 mm 0 mps 688 mmHg 87%
    21:00 +17°C° 0 mm 0 mps 688 mmHg 88%
    22:00 +16°C° 0 mm 0 mps 688 mmHg 88%
    23:00 +18°C° 0 mm 1 mps 688 mmHg 88%

    22 June, Saturday

    Time Temperature Precipitation Wind Pressure Humidity
    00:00 +18°C° 0 mm 1 mps 687 mmHg 88%
    01:00 +16°C° 0 mm 1 mps 687 mmHg 87%
    02:00 +16°C° 0 mm 1 mps 687 mmHg 87%
    03:00 +16°C° 0 mm 1 mps 687 mmHg 87%
    04:00 +16°C° 0 mm 1 mps 687 mmHg 86%
    05:00 +19°C° 0 mm 1 mps 688 mmHg 84%
    06:00 +21°C° 0 mm 1 mps 688 mmHg 81%
    07:00 +20°C° 0 mm 0 mps 689 mmHg 78%
    08:00 +24°C° 0 mm 1 mps 689 mmHg 69%
    09:00 +26°C° 0 mm 1 mps 689 mmHg 60%
    10:00 +28°C° 0 mm 1 mps 689 mmHg 51%
    11:00 +28°C° 0 mm 1 mps 689 mmHg 51%
    12:00 +28°C° 0 mm 2 mps 689 mmHg 50%
    13:00 +29°C° 0 mm 2 mps 689 mmHg 50%
    14:00 +28°C° 0.1 mm 2 mps 689 mmHg 54%
    15:00 +28°C° 0.1 mm 2 mps 689 mmHg 57%
    16:00 +27°C° 0.1 mm 2 mps 688 mmHg 61%
    17:00 +26°C° 0.2 mm 2 mps 688 mmHg 68%
    18:00 +24°C° 0.2 mm 1 mps 688 mmHg 76%
    19:00 +22°C° 0.2 mm 1 mps 688 mmHg 83%
    20:00 +21°C° 0 mm 1 mps 688 mmHg 83%
    21:00 +20°C° 0 mm 1 mps 688 mmHg 83%
    22:00 +19°C° 0 mm 1 mps 688 mmHg 82%
    23:00 +19°C° 0 mm 1 mps 688 mmHg 82%
    Show more